Temp
18 19 16 15 15 16 15 15 15 14 15 15 16 15 16 16 16 16 15 17 15 16
18 18 17 17 16 15 15 15 14 15 15 15 15 16 16 16 16 15 16 15 15 15
19 19 18 18 18 17 16 16 15 14 15 15 16 16 16 16 16 15 15 14 14 14
19 19 19 19 19 17 16 16 16 16 16 15 15 15 16 16 16 16 15 15 14 14
19 19 19 19 19 19 18 17 15 15 15 15 15 16 16 17 17 17 16 16 16 15
19 19 19 19 18 19 18 18 18 16 15 16 16 15 16 17 18 18 19 18 18 17
19 19 19 19 19 19 20 19 19 18 18 17 16 17 18 18 18 18 18 18 19 19
19 19 19 19 19 19 19 20 20 19 19 19 19 19 18 18 18 18 18 18 18 18
19 19 19 19 19 19 19 19 20 20 20 19 18 18 18 18 18 18 18 18 17 19
20 20 19 19 19 19 19 18 19 19 19 19 18 18 18 18 19 19 18 18 18 19
20 20 19 19 19 18 18 18 18 19 19 18 18 18 18 18 18 18 18 18 18 18
21 20 20 20 19 18 18 18 18 18 18 18 17 17 18 18 18 18 17 17 17 17
21 21 20 19 19 18 18 18 19 18 18 18 17 17 17 17 20 18 18 17 17 17
21 20 20 19 18 17 18 19 18 18 18 18 17 17 17 17 19 19 19 19 17 17
Height
774 772 771 770 769 769 768 768 768 767 768 769 771 773 776 781 785 789 794 794 804 811
776 775 774 774 773 772 770 771 771 772 772 775 775 778 781 784 788 792 799 804 809 812
777 776 776 777 777 776 774 773 773 774 777 779 781 783 785 788 793 797 802 806 810 813
778 778 778 778 779 779 778 779 777 777 779 781 784 786 789 791 794 797 802 808 811 816
779 779 780 781 782 782 782 783 783 783 783 785 787 789 792 795 797 799 803 806 812 816
781 781 782 783 784 785 786 787 788 788 788 789 791 794 795 797 800 803 805 810 814 819
782 783 784 785 787 788 789 789 791 792 794 794 794 796 798 800 803 805 809 813 815 820
781 784 786 787 789 790 792 793 794 795 797 798 799 800 801 802 805 808 812 815 818 821
779 782 786 788 790 792 794 795 796 797 799 800 802 804 806 808 810 811 814 817 821 824
778 781 785 788 790 792 795 797 799 800 802 803 805 807 809 811 814 817 819 822 825 827
776 779 783 787 790 793 796 798 800 802 804 806 807 809 810 812 815 818 820 822 825 827
772 777 781 784 789 793 796 798 801 803 805 806 808 810 812 814 817 819 821 822 824 826
769 774 778 782 787 791 795 797 800 803 805 806 808 809 811 814 817 819 822 824 825 827
767 771 776 780 785 789 792 795 798 801 804 806 808 809 811 814 817 819 822 825 827 829
Wind_Speed
10 10 11 9 10 13 11 10 12 13 14 14 13 17 20 19 19 23 18 24 19 14
9 9 7 10 11 10 9 8 7 10 16 14 16 17 18 20 18 20 26 26 24 17
7 9 8 8 9 9 5 9 11 10 8 9 14 16 19 18 17 18 20 23 19 24
7 8 9 9 10 10 8 9 12 12 11 9 9 11 14 17 18 17 19 18 20 25
7 8 9 10 11 12 13 13 13 17 11 8 7 5 6 13 14 16 18 17 20 20
8 9 9 10 11 13 15 14 15 16 19 16 12 13 10 14 16 15 16 16 17 20
10 11 10 10 11 12 14 16 16 17 17 15 10 12 16 17 18 17 16 14 15 14
12 12 11 11 10 12 12 14 16 17 17 17 15 13 15 16 16 18 18 17 15 12
14 13 12 11 11 12 12 13 14 14 15 16 15 18 18 15 15 15 16 15 14 15
15 15 14 13 12 11 11 12 14 14 13 12 13 13 15 16 14 14 14 13 12 12
16 17 16 15 13 12 10 11 11 10 10 10 10 9 9 10 9 9 9 8 8 7
17 18 18 17 15 14 13 12 11 10 9 8 8 10 10 10 9 8 7 6 5 5
18 19 20 19 17 15 13 13 12 10 9 9 8 11 11 12 10 10 9 8 8 13
19 19 19 19 17 16 15 14 13 11 10 10 10 11 13 15 11 12 12 11 11 11
Wind_Direction
43 47 31 62 98 102 88 73 61 96 112 107 119 130 138 137 137 132 131 136 161 144
57 43 52 77 80 77 84 72 59 91 113 102 109 127 134 124 125 127 138 154 183 161
76 54 57 77 77 71 70 65 56 92 112 109 102 106 118 122 125 127 139 156 154 168
91 71 73 68 64 73 85 107 86 87 118 107 101 105 105 113 120 124 140 146 154 158
104 95 82 80 79 84 96 107 119 110 121 137 131 134 125 130 130 128 143 139 141 150
118 116 94 92 88 81 95 107 116 123 120 119 119 112 118 130 130 128 129 138 142 157
138 136 117 109 105 99 92 99 107 115 125 130 120 112 115 120 121 119 123 136 138 152
151 144 141 128 123 114 110 108 107 107 107 110 112 110 110 109 111 114 118 118 120 128
162 156 156 149 138 132 126 122 122 118 112 103 102 121 118 116 117 116 113 109 113 118
167 167 163 164 160 151 145 135 130 126 121 114 115 114 117 116 120 123 125 127 130 129
172 174 172 171 169 165 161 157 152 144 136 137 146 150 145 136 125 126 127 131 136 142
176 176 179 179 177 176 172 169 170 171 167 161 167 173 171 156 160 154 146 142 137 144
178 178 182 184 185 184 184 183 185 185 186 186 181 187 180 164 163 155 157 157 172 167
180 179 181 181 182 182 186 188 193 192 195 196 189 196 188 171 169 166 165 167 175 186